This is the latest recevied weather packets stored in our database for station/object K4KJQ-13. If no packets are shown the sender has not sent any weather packets the latest 1 day(s).
| Time | Temp. | Humidity | Pressure | Rain* | Wind** | Luminosity | Snow |
|---|---|---|---|---|---|---|---|
| 1777981871 | 17.22° C | 100% | 0 hPa | 0 mm | 0.45 m/s, 324° | - | - |
| 1777981571 | 16.67° C | 100% | 0 hPa | 0 mm | 0.89 m/s, 331° | - | - |
| 1777981271 | 16.67° C | 100% | 0 hPa | 0 mm | 2.24 m/s, 303° | - | - |
| 1777980971 | 16.67° C | 100% | 0 hPa | 0 mm | 2.68 m/s, 291° | - | - |
| 1777980671 | 17.22° C | 100% | 0 hPa | 0 mm | 1.79 m/s, 307° | - | - |
| 1777980371 | 16.67° C | 100% | 0 hPa | 0 mm | 1.79 m/s, 288° | - | - |
| 1777980071 | 16.11° C | 100% | 0 hPa | 0 mm | 0.89 m/s, 307° | - | - |
| 1777979771 | 16.67° C | 100% | 0 hPa | 0 mm | 1.34 m/s, 282° | - | - |
| 1777979471 | 16.11° C | 100% | 0 hPa | 0 mm | 3.13 m/s, 292° | - | - |
| 1777979171 | 16.11° C | 100% | 0 hPa | 0 mm | 3.13 m/s, 295° | - | - |
| 1777978871 | 16.11° C | 100% | 0 hPa | 0 mm | 1.34 m/s, 288° | - | - |
| 1777978571 | 16.11° C | 100% | 0 hPa | 0 mm | 1.79 m/s, 302° | - | - |
| 1777978271 | 16.11° C | 100% | 0 hPa | 0 mm | 0.89 m/s, 313° | - | - |
| 1777977971 | 16.11° C | 100% | 0 hPa | 0 mm | 1.34 m/s, 316° | - | - |
| 1777977671 | 16.67° C | 100% | 0 hPa | 0 mm | 1.79 m/s, 323° | - | - |
| 1777977371 | 16.67° C | 100% | 0 hPa | 0 mm | 1.79 m/s, 300° | - | - |
| 1777977071 | 16.11° C | 100% | 0 hPa | 0 mm | 3.13 m/s, 302° | - | - |
| 1777976771 | 16.67° C | 100% | 0 hPa | 0 mm | 1.34 m/s, 303° | - | - |
| 1777976471 | 16.11° C | 100% | 0 hPa | 0 mm | 1.79 m/s, 292° | - | - |
| 1777976171 | 16.11° C | 100% | 0 hPa | 0 mm | 1.34 m/s, 302° | - | - |
| 1777975872 | 16.11° C | 100% | 0 hPa | 0 mm | 2.68 m/s, 298° | - | - |
| 1777975571 | 16.67° C | 100% | 0 hPa | 0 mm | 3.13 m/s, 296° | - | - |
| 1777975271 | 16.67° C | 100% | 0 hPa | 0 mm | 1.79 m/s, 291° | - | - |
| 1777974971 | 16.67° C | 100% | 0 hPa | 0 mm | 1.79 m/s, 307° | - | - |
| 1777974671 | 17.22° C | 100% | 0 hPa | 0 mm | 2.24 m/s, 296° | - | - |
* Rain latest hour (hover to see other rain measurements)
** Current wind speed in m/s (hover to see current wind gust speed)